San Antonio Stinson, TX

7:22 AM CDT on October 17, 2017 (GMT -0500)
Stinson Municipal

Weather History for KSSF - December, 2012

Change the Weather History Date:

Sunday, December 9, 2012

  Actual Average Record
Temperature  
Mean Temperature 70 °F -  
Max Temperature 79 °F 62 °F 82 °F (2007)
Min Temperature 59 °F 41 °F 32 °F (2010)
Cooling Degree Days 4    
Growing Degree Days 20 (Base 50)    
Moisture  
Dew Point 65 °F    
Average Humidity 85    
Maximum Humidity 100    
Minimum Humidity 58    
Precipitation  
Precipitation 0.00 in - - ()
Sea Level Pressure  
Sea Level Pressure 29.83 in    
Wind  
Wind Speed 3 mph (SSE)    
Max Wind Speed 14 mph    
Max Gust Speed 23 mph    
Visibility 4 miles    
Events Rain    
Averages and records for this station are not official NWS values.
T = Trace of Precipitation, MM = Missing Value Source: NWS Daily Summary

Daily Weather History Graph

Daily Weather History Graph

Search for Another Location

Airport or City:

Trip Planner

Search our weather history database for the weather conditions in past years. The results will help you decide how hot, cold, wet, or windy it might be!

Date:

Astronomy

Dec. 09, 2012 Rise Set
Actual Time 7:17 AM CST 5:35 PM CST
Civil Twilight 6:51 AM CST 6:01 PM CST
Nautical Twilight 6:21 AM CST 6:31 PM CST
Astronomical Twilight 5:52 AM CST 7:00 PM CST
Moon 3:05 AM CST (12/9) 2:32 PM CST (12/9)
Length of Visible Light 11h 10m
Length of Day
10h 18m
Waning Crescent, 18% of the Moon is Illuminated
Dec 9
Waning Crescent
Dec 13
New
Dec 19
First Quarter
Dec 28
Full
Jan 4
Last Quarter

Hourly Weather History & Observations

Time (CST) Temp. Dew Point Humidity Pressure Visibility Wind Dir Wind Speed Gust Speed Precip Events Conditions
12:53 AM 68.0 °F 66.0 °F 93% 29.83 in 4.0 mi Calm Calm - N/A   Overcast
1:00 AM 68.0 °F 66.2 °F 94% 29.85 in 4.0 mi Calm Calm - N/A   Overcast
1:24 AM 66.2 °F 66.2 °F 100% 29.84 in 4.0 mi Calm Calm - N/A   Overcast
1:35 AM 66.2 °F 66.2 °F 100% 29.85 in 3.0 mi Calm Calm - N/A   Overcast
1:53 AM 66.0 °F 66.0 °F 100% 29.82 in 3.0 mi Calm Calm - N/A   Overcast
1:57 AM 66.2 °F 66.2 °F 100% 29.84 in 2.5 mi Calm Calm - N/A   Overcast
2:25 AM 66.2 °F 66.2 °F 100% 29.84 in 3.0 mi Calm Calm - N/A   Overcast
2:51 AM 64.4 °F 64.4 °F 100% 29.84 in 2.5 mi SSE 3.5 mph - N/A   Overcast
2:53 AM 64.9 °F 64.9 °F 100% 29.82 in 2.5 mi SSE 3.5 mph - N/A   Overcast
3:53 AM 66.0 °F 66.0 °F 100% 29.82 in 2.0 mi Calm Calm - N/A   Overcast
4:53 AM 66.9 °F 66.9 °F 100% 29.81 in 2.5 mi SE 3.5 mph - N/A   Overcast
5:02 AM 66.2 °F 66.2 °F 100% 29.84 in 3.0 mi SSE 4.6 mph - N/A   Overcast
5:53 AM 68.0 °F 66.9 °F 96% 29.84 in 3.0 mi South 3.5 mph - N/A   Overcast
6:53 AM 68.0 °F 66.9 °F 96% 29.85 in 3.0 mi SE 4.6 mph - N/A   Overcast
7:17 AM 68.0 °F 66.2 °F 94% 29.88 in 3.0 mi ESE 3.5 mph - N/A   Overcast
7:53 AM 68.0 °F 66.9 °F 96% 29.86 in 2.0 mi ESE 4.6 mph - N/A   Overcast
8:53 AM 69.1 °F 68.0 °F 96% 29.88 in 2.5 mi SSE 4.6 mph - N/A   Overcast
9:02 AM 69.8 °F 68.0 °F 94% 29.90 in 2.5 mi SE 4.6 mph - N/A   Overcast
9:17 AM 69.8 °F 68.0 °F 94% 29.90 in 3.0 mi SE 4.6 mph - N/A   Overcast
9:45 AM 71.6 °F 68.0 °F 88% 29.90 in 3.0 mi SSE 6.9 mph - N/A   Mostly Cloudy
9:53 AM 71.1 °F 68.0 °F 90% 29.88 in 3.0 mi SSE 6.9 mph - N/A   Mostly Cloudy
10:30 AM 73.4 °F 68.0 °F 83% 29.90 in 5.0 mi South 6.9 mph - 0.00 in   Mostly Cloudy
10:53 AM 73.9 °F 68.0 °F 82% 29.87 in 5.0 mi South 6.9 mph - 0.00 in   Scattered Clouds
12:01 PM 75.2 °F 66.2 °F 73% 29.86 in 4.0 mi SSW 6.9 mph - N/A   Haze
12:36 PM 75.2 °F 66.2 °F 73% 29.84 in 5.0 mi South 8.1 mph - N/A   Haze
12:53 PM 75.9 °F 66.9 °F 74% 29.80 in 5.0 mi SSE 6.9 mph - N/A   Haze
1:06 PM 75.2 °F 66.2 °F 73% 29.81 in 4.0 mi SSE 10.4 mph - N/A   Haze
1:53 PM 78.1 °F 64.9 °F 64% 29.77 in 4.0 mi Variable 3.5 mph - N/A   Haze
2:17 PM 77.0 °F 64.4 °F 65% 29.80 in 4.0 mi SSW 4.6 mph - N/A   Haze
2:38 PM 77.0 °F 66.2 °F 69% 29.79 in 4.0 mi South 8.1 mph - N/A   Haze
2:53 PM 78.1 °F 64.9 °F 64% 29.76 in 5.0 mi South 4.6 mph - N/A   Haze
3:53 PM 79.0 °F 64.0 °F 60% 29.76 in 5.0 mi Variable 4.6 mph - N/A   Haze
4:53 PM 77.0 °F 64.9 °F 66% 29.74 in 5.0 mi ESE 3.5 mph - N/A   Haze
5:53 PM 73.9 °F 66.0 °F 76% 29.76 in 5.0 mi Calm Calm - N/A   Haze
6:53 PM 70.0 °F 64.9 °F 84% 29.77 in 5.0 mi Calm Calm - N/A   Haze
7:53 PM 69.1 °F 64.9 °F 87% 29.77 in 4.0 mi Calm Calm - N/A   Partly Cloudy
8:53 PM 69.1 °F 64.9 °F 87% 29.79 in 4.0 mi Calm Calm - N/A   Overcast
9:53 PM 69.1 °F 54.0 °F 58% 29.84 in 7.0 mi NNE 13.8 mph 23.0 mph 0.00 in Rain Light Rain
10:53 PM 60.1 °F 48.0 °F 64% 29.88 in 10.0 mi NE 12.7 mph 21.9 mph 0.00 in   Overcast
11:53 PM 59.0 °F 44.1 °F 58% 29.89 in 10.0 mi NE 11.5 mph 18.4 mph N/A   Mostly Cloudy